Location: *
(50.6089°N, 2.2719°E)
Time: 19:19:37
(UTC+00:00)

STARLINK-33 - Pass Details

Date: 18 October 2019
Orbit: 548 x 551 km, 53.0° (Epoch: 12 November)

Event Time Altitude Azimuth Distance (km) Brightness Sun altitude
Rises 18:44:17 0° 268° (W) 2,715 8.8 -18.3°
Reaches altitude 10° 18:46:32 10° 272° (W) 1,823 7.5 -18.6°
Maximum altitude 18:50:39 63° 354° (N) 617 3.8 -19.3°
Enters shadow 18:51:46 43° 55° (NE) 775 4.0 -19.5°
